Location: ??
(35.4627°N, 139.3695°E)
Time: 14:12:45
(UTC+00:00)

CZ-4B R/B - Pass Details

Date: 25 November 2020
Orbit: 485 x 652 km, 97.9° (Epoch: 20 January)

Event Time Altitude Azimuth Distance (km) Brightness Sun altitude
Rises 19:31:36 0° 18° (NNE) 2,980 6.7 -23.5°
Reaches altitude 10° 19:33:54 10° 23° (NNE) 2,061 5.9 -23.0°
Maximum altitude 19:38:18 51° 100° (E) 814 4.0 -22.1°
Drops below altitude 10° 19:42:34 10° 176° (S) 2,000 5.8 -21.3°
Sets 19:44:46 0° 181° (S) 2,881 6.6 -20.8°
